MST,Max TemperatureF,Mean TemperatureF,Min TemperatureF,Max Dew PointF,MeanDew PointF,Min DewpointF,Max Humidity, Mean Humidity, Min Humidity, Max Sea Level PressureIn, Mean Sea Level PressureIn, Min Sea Level PressureIn, Max VisibilityMiles, Mean VisibilityMiles, Min VisibilityMiles, Max Wind SpeedMPH, Mean Wind SpeedMPH, Max Gust SpeedMPH,PrecipitationIn, CloudCover, Events, WindDirDegrees
2012-12-1,54,46,37,40,37,33,82,68,54,29.96,29.91,29.77,10,10,8,28,12,38,0.03,5,Rain,193
2012-12-2,52,43,34,41,35,28,96,73,50,29.98,29.68,29.47,10,9,3,51,32,66,0.30,6,Rain,198
2012-12-3,44,37,30,27,25,22,75,58,40,30.31,30.22,30.04,10,10,10,24,9,31,0.00,1,,199
2012-12-4,50,42,33,41,32,21,89,67,45,30.32,30.21,30.12,10,10,9,28,14,36,0.16,7,Rain,178
2012-12-5,49,46,42,43,40,36,89,83,76,30.12,30.05,30.01,10,10,10,24,15,32,0.08,6,Rain,203
2012-12-6,44,39,34,39,35,29,89,83,76,30.06,30.02,29.95,10,10,10,24,14,31,0.01,5,Rain,224
2012-12-7,39,35,31,28,25,22,85,69,52,30.16,30.05,29.91,10,10,10,25,15,30,0.00,7,,227
2012-12-8,35,29,23,24,20,16,81,69,56,30.19,30.03,29.84,10,10,10,31,16,41,T,5,Snow,240
2012-12-9,28,22,15,19,12,4,91,64,37,30.43,30.32,30.09,10,10,2,16,8,21,T,5,Snow,205
2012-12-10,39,33,26,31,26,16,92,73,53,30.28,30.16,30.06,10,8,3,24,13,32,0.01,6,Rain-Snow,207
2012-12-11,43,37,30,28,27,24,85,67,49,30.14,29.93,29.62,10,10,10,30,16,40,0.00,4,,199
2012-12-12,43,37,30,31,27,23,92,69,45,29.88,29.74,29.60,10,10,9,25,9,33,T,5,Snow,210
2012-12-13,48,38,27,29,27,24,92,67,42,29.94,29.87,29.78,10,10,10,10,4,12,0.00,5,,54
2012-12-14,35,31,26,30,28,24,100,89,78,29.85,29.75,29.64,10,7,0,18,9,22,0.06,7,Fog-Snow,224
2012-12-15,31,26,21,25,22,16,92,82,72,29.94,29.90,29.84,10,10,10,17,10,23,T,6,,218
2012-12-16,35,30,25,29,25,20,85,74,63,29.93,29.86,29.77,10,8,0,26,14,30,0.03,8,Fog-Snow,214
2012-12-17,41,35,28,33,29,21,92,78,63,29.87,29.69,29.58,10,8,0,36,23,48,0.21,6,Fog-Rain-Snow,217
2012-12-18,28,22,15,20,15,11,84,73,62,30.02,29.94,29.88,10,10,10,25,11,30,0.00,2,,235
2012-12-19,26,20,14,16,12,9,88,75,62,30.46,30.24,29.90,10,10,10,21,10,24,T,4,Snow,219
2012-12-20,34,23,12,14,9,3,84,56,28,30.46,30.37,30.28,10,10,10,15,6,17,0.00,0,,59
2012-12-21,42,26,9,20,13,7,92,61,29,30.29,30.19,30.09,10,10,10,10,3,13,0.00,0,,28
2012-12-22,42,27,12,29,16,10,92,60,28,30.12,30.02,29.85,10,10,10,20,5,26,T,4,,317
2012-12-23,40,32,24,30,25,20,85,65,44,30.11,29.97,29.76,10,9,1,28,11,35,0.01,6,Snow,198
2012-12-24,38,30,22,31,26,18,92,78,64,30.20,29.89,29.74,10,7,1,29,16,37,0.10,7,Snow,215
2012-12-25,27,20,12,20,17,10,92,78,63,30.33,30.18,30.00,10,10,10,18,7,23,0.00,5,,295
2012-12-26,28,25,22,24,21,17,100,84,68,29.97,29.80,29.69,10,3,1,8,3,14,0.24,8,Snow,18
2012-12-27,26,24,22,23,21,19,96,89,81,30.17,29.97,29.77,10,7,1,17,11,21,0.10,8,Snow,230
2012-12-28,27,13,-1,22,11,-2,100,84,68,30.40,30.26,30.10,10,7,0,20,9,23,T,5,Fog-Snow,233
2012-12-29,23,10,-4,14,1,-8,95,81,67,30.42,30.25,30.02,10,6,0,9,3,10,0.00,4,Fog,54
2012-12-30,23,17,11,15,12,8,96,85,73,30.30,30.17,30.00,10,5,1,13,5,15,T,7,Snow,285
2012-12-31,18,14,9,16,12,6,92,86,80,30.47,30.30,30.12,10,6,0,16,7,18,0.07,8,Fog-Snow,243